Location: Unspecified
(0.0000°N, 0.0000°E)
Time: 10:14:04
(UTC+00:00)

Courier 1B Rocket - Pass Details

Date: 22 May 2026
Orbit: 920 x 1201 km, 28.2° (Epoch: 9 June)

Event Time Altitude Azimuth Distance (km) Brightness Sun altitude
Rises 10:03:45 0° 330° (NNW) 3,549 8.0 55.6°
Reaches altitude 10° 10:07:57 10° 357° (N) 2,636 7.7 56.5°
Maximum altitude 10:10:49 13° 24° (NNE) 2,437 7.8 57.0°
Drops below altitude 10° 10:13:44 10° 52° (NE) 2,700 8.0 57.6°
Sets 10:18:08 0° 78° (ENE) 3,712 8.4 58.4°
